Location: Asni�res
(49.1337°N, 2.3555°E)
Time: 03:08:23
(UTC+00:00)

Cosmos 1626 Rocket - Pass Details

Date: 03 June 2022
Orbit: 602 x 631 km, 82.5° (Epoch: 04 July)

Event Time Altitude Azimuth Distance (km) Brightness Sun altitude
Exits shadow 02:47:40 - 184° (S) 2,417 6.1 -8.2°
Reaches altitude 10° 02:48:46 10° 184° (S) 1,971 5.7 -8.1°
Maximum altitude 02:53:08 80° 98° (E) 628 3.7 -7.6°
Drops below altitude 10° 02:57:29 10° 12° (NNE) 1,971 7.2 -7.1°
Sets 02:59:43 0° 11° (NNE) 2,877 8.1 -6.9°
